Location: IoMAS Observatory
(54.1780°N, 4.6265°W)
Time: 18:53:10
(UTC+01:00)

ISS - Pass Details

Date: 29 November 2021
Orbit: 413 x 422 km, 51.6° (Epoch: 23 January)

Event Time Altitude Azimuth Distance (km) Brightness Sun altitude
Rises 18:31:42 0° 258° (WSW) 2,383 2.1 -12.4°
Reaches altitude 10° 18:33:50 10° 253° (WSW) 1,516 0.6 -12.7°
Maximum altitude 18:37:10 55° 175° (S) 517 -3.3 -13.2°
Enters shadow 18:39:13 21° 104° (ESE) 1,017 -2.3 -13.5°
